{"data":{"norad_id":64672,"epoch":"2026-05-25T03:25:56.812224Z","epoch_age_seconds":59807,"freshness":"FRESH","line1":"1 64672U 25139J   26145.14301866  .00019175  00000+0  57675-3 0  9997","line2":"2 64672  53.1599 130.9150 0000384  32.5066 327.5960 15.34424605 52008","mean_motion":15.34424605,"eccentricity":3.84e-5,"inclination_deg":53.1599,"raan_deg":130.915,"arg_perigee_deg":32.5066,"mean_anomaly_deg":327.596,"bstar":0.00057675,"rev_number":5200,"period_min":93.846253201864,"perigee_km":462.36742448205,"apogee_km":462.8927953961,"semimajor_km":6840.7671099391,"source":"CELESTRAK","updated_at":"2026-05-25T13:38:20.503446Z"}}